Location: Newark
(11.2914°S, 14.4718°E)
Time: 22:10:16
(UTC+00:00)

Tiros 1 despin weight - Pass Details

Date: 22 September 2019
Orbit: 594 x 643 km, 48.2° (Epoch: 15 October)

Event Time Altitude Azimuth Distance (km) Brightness Sun altitude
Rises 05:55:20 0° 204° (SSW) 2,952 ? 14.7°
Reaches altitude 10° 05:57:58 10° 192° (SSW) 2,040 ? 15.3°
Maximum altitude 06:01:59 27° 133° (SE) 1,221 ? 16.3°
Drops below altitude 10° 06:05:57 10° 75° (ENE) 2,022 ? 17.3°
Sets 06:08:33 0° 63° (ENE) 2,921 ? 17.9°
